Location: Brabourne
(51.1333°N, 1.0000°E)
Time: 19:09:49
(UTC+00:00)

Cosmos 1943 Rocket - Visible Passes

Search period start: 21 October 2021 00:00
Search period end: 31 October 2021 00:00
Orbit: 810 x 845 km, 71.0° (Epoch: 21 October)

Date Brightness Start Highest point End Pass type
(mag) Time Alt. Az. Time Alt. Az. Time Alt. Az.
21 Oct 4.2 19:41:33 10° N 19:44:35 16° NNE 19:44:35 16° NNE visible
21 Oct 4.6 21:24:41 10° NNW 21:26:06 18° NNW 21:26:06 18° NNW visible
22 Oct 4.1 19:22:22 10° N 19:25:39 15° NNE 19:25:42 15° NNE visible
22 Oct 4.4 21:05:29 10° NNW 21:07:12 19° NNW 21:07:12 19° NNW visible
23 Oct 4.1 19:03:12 10° N 19:06:17 14° NNE 19:06:50 14° NNE visible
23 Oct 4.2 20:46:16 10° NNW 20:48:20 21° N 20:48:20 21° N visible
24 Oct 4.1 18:44:03 10° N 18:46:53 14° NNE 18:47:58 13° NE visible
24 Oct 4.0 20:27:04 10° NNW 20:29:29 23° N 20:29:29 23° N visible
24 Oct 5.1 22:10:51 10° NW 22:11:00 11° NW 22:11:00 11° NW visible
25 Oct 4.2 18:24:53 10° N 18:27:28 13° NNE 18:29:08 12° NE visible
25 Oct 3.8 20:07:53 10° NNW 20:10:39 25° N 20:10:39 25° N visible
25 Oct 4.9 21:51:34 10° NW 21:52:10 13° NW 21:52:10 13° NW visible
26 Oct 4.2 18:05:43 10° N 18:08:05 12° NNE 18:10:19 10° NE visible
26 Oct 3.7 19:48:41 10° NNW 19:51:50 26° N 19:51:50 26° N visible
26 Oct 4.7 21:32:18 10° NW 21:33:21 16° NW 21:33:21 16° NW visible
27 Oct 4.2 17:46:34 10° N 17:48:40 12° NNE 17:50:46 10° NE visible
27 Oct 3.6 19:29:29 10° NNW 19:33:02 26° NNE 19:33:02 26° NNE visible
27 Oct 4.5 21:13:02 10° NNW 21:14:33 19° NW 21:14:33 19° NW visible
28 Oct 4.2 17:27:25 10° N 17:29:15 11° NNE 17:31:06 10° NE visible
28 Oct 3.5 19:10:18 10° NNW 19:14:16 26° NNE 19:14:16 26° NNE visible
28 Oct 4.2 20:53:47 10° NNW 20:55:48 23° NW 20:55:48 23° NW visible
29 Oct 4.2 17:08:16 10° N 17:09:50 11° NNE 17:11:25 10° NNE visible
29 Oct 3.4 18:51:06 10° NNW 18:55:32 25° NE 18:55:32 25° NE visible
29 Oct 3.9 20:34:32 10° NNW 20:37:03 27° NNW 20:37:03 27° NNW visible
30 Oct 3.4 18:31:55 10° NNW 18:36:27 24° NE 18:36:49 24° NE visible
30 Oct 3.6 20:15:18 10° NNW 20:18:21 33° NNW 20:18:21 33° NNW visible
